Theta_e
327 320 314 307 299 295 291 294 299 307 311 315 325 323 309 310 309 306 314 354 361 361 362 363 366 365 363 362 360 360 360 361 362 362 363 362 362 362 363 363 363 361 358 354 354 355 357 357 356
324 318 307 299 295 289 291 297 302 303 306 309 309 307 308 306 310 309 310 358 361 361 361 362 365 365 363 362 361 360 359 360 361 361 361 362 362 363 363 363 363 359 357 354 354 356 357 356 355
316 315 301 295 291 290 292 296 300 304 307 307 307 309 309 307 312 309 311 352 361 360 360 361 365 365 364 362 360 360 359 359 360 360 360 361 361 362 363 364 363 359 355 354 354 355 356 356 356
311 304 299 295 291 294 295 298 299 303 306 307 306 303 306 310 310 310 312 360 358 358 361 364 365 364 364 361 360 360 360 359 360 361 360 360 360 362 362 363 363 362 358 355 354 355 356 355 355
306 298 293 290 291 295 298 300 300 301 301 302 302 301 303 308 309 309 312 357 353 356 360 363 364 364 364 362 361 361 361 361 360 361 360 360 360 360 362 363 363 362 360 357 355 355 355 355 355
299 296 290 289 291 298 299 299 300 300 300 301 301 300 301 306 307 316 323 351 354 357 360 362 364 363 363 363 361 361 361 360 360 360 361 361 360 359 361 362 363 363 361 359 357 356 354 353 353
297 293 290 290 295 297 299 299 299 299 300 300 303 298 300 304 306 339 356 357 357 358 358 360 361 363 364 362 362 361 360 360 360 359 359 360 360 359 360 361 362 362 361 360 358 356 354 353 352
297 294 291 289 295 293 297 297 297 298 299 304 305 298 294 301 305 312 325 348 354 356 359 359 359 359 359 359 362 361 360 360 360 359 359 359 360 360 360 359 360 362 361 360 359 357 355 353 352
298 291 289 291 293 293 294 295 299 301 300 301 302 302 304 305 305 308 310 311 317 326 346 358 356 356 357 358 360 361 361 361 360 359 359 356 353 354 356 358 359 361 361 361 359 358 355 354 353
294 289 292 295 296 294 294 295 298 299 299 299 301 303 305 304 303 304 304 305 308 312 315 316 326 334 337 357 356 355 358 357 355 354 352 351 350 351 355 357 359 360 361 361 359 358 357 355 345
292 292 295 296 296 297 297 295 298 297 293 298 299 301 302 302 301 302 302 303 305 306 314 315 317 318 320 324 343 351 354 355 356 354 351 350 352 353 351 351 353 354 358 354 356 352 351 346 344
296 296 297 297 300 296 297 298 297 297 297 302 302 303 302 301 301 302 303 306 310 311 312 317 318 318 319 322 324 329 331 343 351 353 352 353 351 350 349 350 351 353 353 352 353 352 347 344 342
292 294 297 297 295 295 298 297 296 296 300 302 301 302 303 304 305 306 307 308 311 313 313 315 317 317 318 318 320 322 323 328 333 343 351 351 351 349 345 347 347 349 351 351 349 348 347 344 342
294 294 294 294 295 294 295 295 297 298 301 301 301 300 303 305 306 307 309 310 311 313 313 315 316 316 316 316 318 319 320 323 325 333 341 337 345 350 348 345 345 346 348 350 348 347 347 344 341
295 290 293 293 294 293 296 292 295 299 299 299 300 300 303 305 307 307 309 309 311 312 314 314 314 313 313 315 317 317 319 323 323 326 329 334 337 338 339 341 343 345 346 349 349 348 346 342 340
291 289 286 291 293 295 296 287 296 298 298 298 300 302 305 306 307 307 309 309 309 310 311 313 318 315 315 314 315 317 320 320 321 322 324 329 334 335 331 332 332 337 346 348 348 347 344 341 339
287 284 284 290 294 293 292 288 296 297 297 298 298 302 305 305 305 307 309 308 308 308 308 309 313 313 314 316 316 318 319 317 320 320 321 323 326 332 330 329 332 336 339 345 346 346 343 340 338
284 284 285 288 292 292 289 290 294 296 297 298 297 301 304 304 304 307 307 308 308 308 309 309 311 309 308 312 315 317 313 314 317 318 318 322 325 328 328 329 332 337 339 341 344 344 344 342 339
290 288 288 290 294 291 290 291 293 296 295 296 296 300 302 303 304 305 307 307 308 308 308 308 308 307 308 310 312 309 310 313 314 315 319 323 325 326 324 320 322 323 327 335 339 342 342 340 340
291 288 287 291 294 292 291 292 295 297 297 297 297 299 302 301 302 305 305 306 307 308 308 308 307 306 309 311 310 312 313 313 313 315 315 318 321 325 322 319 318 318 319 321 327 338 336 339 339
289 288 288 289 293 292 291 289 291 295 296 298 298 300 303 303 302 303 304 305 305 306 306 307 305 306 307 308 307 307 306 306 305 307 307 313 318 322 321 319 317 316 316 317 322 328 334 334 338
287 293 293 292 288 284 290 282 287 292 294 296 297 296 302 301 302 302 303 303 303 304 305 305 304 303 305 305 303 302 302 302 304 307 308 310 315 318 320 319 318 316 316 316 320 326 329 332 330
291 294 292 291 286 284 285 283 286 289 290 293 295 297 300 302 302 302 302 303 303 303 303 302 302 302 302 302 301 301 301 302 304 306 306 307 311 315 318 318 317 316 316 317 319 323 326 330 331
296 292 290 288 284 278 285 284 283 286 291 296 296 297 300 301 300 301 302 302 301 300 301 300 301 301 301 301 301 300 299 300 301 302 302 305 307 310 315 317 316 316 316 316 319 322 327 328 329
291 286 278 278 279 278 287 283 285 292 298 299 297 297 299 300 300 301 301 300 299 299 300 301 300 299 300 300 300 300 300 299 300 301 302 303 305 305 310 313 314 315 316 317 318 319 322 329 328
288 287 280 276 277 283 289 284 289 298 299 298 299 299 299 299 299 300 301 300 298 299 299 299 299 298 299 299 299 299 299 300 301 301 302 303 303 304 306 308 312 316 317 318 319 319 321 327 329
288 285 288 284 283 280 284 289 295 297 298 298 298 299 298 299 300 300 300 298 298 298 298 298 298 298 298 298 298 298 299 299 300 301 302 303 303 305 306 307 309 311 314 317 318 320 320 325 328
291 294 284 282 279 277 282 284 285 293 295 297 297 298 299 298 299 299 298 298 298 297 297 298 297 297 298 298 298 299 300 300 301 301 301 302 303 304 305 306 307 309 313 316 317 319 321 322 326
289 287 288 287 283 279 277 283 292 294 296 297 297 299 298 298 298 298 297 297 297 297 296 297 297 297 297 298 298 298 300 300 301 301 302 302 303 303 304 305 305 306 309 312 314 316 321 322 324
293 289 290 283 282 282 281 285 295 297 297 298 298 299 298 299 299 296 296 296 296 296 296 296 297 297 297 297 299 299 300 300 299 300 300 301 301 303 303 304 304 306 308 311 314 315 319 321 323
Wind_Speed
6 6 2 4 4 6 2 2 3 4 3 2 6 3 2 3 3 5 3 2 9 13 11 11 11 12 13 11 10 11 15 14 14 13 13 14 14 14 13 12 12 11 10 9 9 10 11 10 9
4 3 4 3 6 5 5 4 6 3 4 12 7 4 6 4 4 2 4 4 9 11 10 11 13 11 13 14 12 11 12 14 14 14 13 13 13 12 12 11 11 12 10 9 8 9 10 9 8
2 3 4 5 4 5 4 3 4 4 5 4 5 5 3 5 4 3 3 6 8 7 7 10 15 14 13 14 12 11 11 12 13 14 13 13 12 11 10 9 10 10 9 8 7 8 8 7 7
2 5 5 5 4 2 4 4 3 7 7 8 4 5 3 4 3 6 9 9 9 6 6 11 13 13 13 15 15 12 10 10 10 12 12 12 12 10 9 8 8 8 8 7 6 4 5 5 5
4 4 4 5 3 1 1 3 3 6 4 2 1 2 2 4 10 8 5 6 8 7 5 7 9 9 11 14 14 14 12 8 7 7 9 10 10 9 9 8 8 7 6 5 4 3 3 3 2
5 4 5 3 2 2 3 2 3 5 4 4 6 5 2 5 8 10 6 8 8 7 6 6 7 5 4 4 5 7 10 12 9 7 7 7 8 8 7 6 6 7 6 5 4 4 4 4 3
6 5 4 4 6 4 2 1 6 5 6 0 8 5 2 8 9 7 13 12 10 9 8 6 6 5 6 4 2 1 2 4 8 10 7 5 5 7 7 7 6 5 5 5 5 5 6 6 6
6 5 2 1 4 4 1 2 3 3 4 4 4 5 2 1 4 9 11 8 8 7 7 7 6 5 5 5 7 5 4 4 4 5 9 9 6 6 7 7 8 8 7 7 7 7 8 8 8
4 6 2 5 6 5 1 5 3 3 6 4 2 7 5 5 4 14 11 9 9 10 6 5 5 5 3 3 3 4 6 6 6 5 6 5 4 5 6 7 9 9 9 8 8 8 9 9 9
5 4 7 3 7 6 2 2 4 6 5 5 5 3 3 6 9 11 9 7 8 10 8 9 10 8 6 3 4 2 1 1 2 3 3 2 4 3 6 8 11 11 10 9 9 9 10 9 4
3 6 5 4 4 7 7 3 1 11 2 7 11 7 6 6 7 11 8 7 7 4 8 8 8 8 10 8 6 3 2 2 2 4 4 3 2 2 5 2 4 5 10 4 6 5 4 5 4
2 4 6 6 5 4 7 5 3 4 6 11 11 10 7 9 9 10 9 7 8 8 6 7 7 7 7 5 4 4 5 5 3 2 3 3 3 4 7 5 6 5 4 6 5 4 5 5 5
3 2 5 4 5 4 7 5 5 5 3 9 8 7 10 10 10 7 8 7 7 9 6 6 7 7 6 7 4 5 5 4 5 5 3 2 4 4 4 6 4 5 5 7 8 9 6 6 5
3 2 2 5 7 3 6 5 6 4 7 8 8 10 10 15 11 9 8 9 8 8 7 6 6 5 5 4 3 2 3 4 5 4 5 6 4 4 5 6 6 6 6 7 7 9 9 7 5
2 0 5 3 6 5 5 4 8 6 8 10 10 9 9 9 9 9 9 10 9 6 8 7 8 8 7 5 3 2 2 3 3 3 5 5 5 5 3 2 6 7 7 9 7 8 7 6 5
4 5 3 4 3 6 10 9 9 8 9 11 9 9 10 8 9 8 8 9 8 8 8 5 6 8 8 4 3 1 0 1 0 2 3 6 5 5 5 4 5 6 7 8 8 9 8 8 7
7 2 3 9 3 3 5 6 11 4 10 11 9 9 9 8 6 7 8 8 8 8 8 6 4 3 1 4 5 3 1 1 2 2 3 5 5 5 4 4 6 7 7 8 9 10 10 8 8
5 3 5 5 2 3 3 6 7 2 5 11 8 9 9 10 11 9 8 7 8 6 7 6 3 4 3 2 2 2 3 2 2 3 4 5 4 5 4 3 5 7 7 8 7 14 10 10 10
2 4 5 4 3 1 6 8 11 8 4 8 8 10 10 11 5 6 7 8 7 6 7 5 4 5 4 3 2 1 3 3 3 3 6 6 5 5 4 4 4 4 6 10 10 10 13 11 9
6 7 5 5 3 2 5 9 9 8 8 9 10 12 14 7 8 8 8 6 5 6 6 6 3 2 2 1 1 2 2 4 4 4 5 6 6 6 6 5 5 5 4 6 10 13 10 10 9
6 6 5 6 4 3 4 9 6 7 6 7 8 14 17 18 15 9 7 6 6 7 7 7 6 3 3 2 3 3 2 2 2 4 4 5 7 7 7 7 6 6 4 5 7 10 12 8 5
7 6 4 5 3 4 2 9 5 6 9 9 10 9 17 12 8 7 7 6 6 6 6 6 3 3 3 4 3 3 3 5 4 6 5 6 7 9 9 8 8 7 6 5 6 8 10 9 11
9 4 5 3 3 2 3 2 9 4 7 13 11 12 15 15 13 10 9 9 6 7 6 4 4 4 3 4 3 3 5 4 7 7 8 8 6 9 11 10 8 8 7 7 8 10 11 10 10
6 5 7 5 3 3 8 8 8 5 4 6 3 6 13 15 10 9 8 7 7 4 4 4 4 2 2 2 4 5 7 9 9 9 9 8 7 6 7 10 9 9 9 9 9 10 12 13 11
6 7 3 5 3 7 2 2 11 7 13 10 7 8 10 10 10 9 9 8 7 7 6 4 4 1 4 5 6 7 8 9 11 10 9 8 8 9 9 8 10 9 10 10 11 11 12 14 12
8 10 9 7 5 5 3 7 7 4 7 5 10 10 9 9 8 9 9 8 7 7 4 3 2 5 7 7 7 7 8 6 8 9 9 9 10 10 12 12 12 12 13 11 12 11 11 12 14
5 4 5 7 2 3 5 8 6 1 6 6 9 8 8 9 9 8 7 7 7 6 4 4 6 7 7 7 7 8 7 9 9 11 11 10 12 10 13 13 14 15 15 15 13 12 14 12 15
7 9 4 3 4 5 5 6 7 6 6 5 6 9 9 6 7 7 6 7 5 4 3 5 7 8 7 7 7 8 9 10 10 10 14 15 13 13 13 14 15 16 16 14 14 13 15 15 13
2 2 5 6 6 7 2 8 7 10 9 10 9 9 9 7 8 8 7 5 5 4 6 6 6 6 7 7 8 9 11 9 10 12 14 14 15 14 15 15 16 17 17 15 14 16 17 18 17
7 12 9 7 6 3 4 11 5 8 10 9 10 6 6 8 10 7 7 6 6 7 5 6 5 6 7 8 10 12 11 11 11 13 15 15 16 16 16 17 17 17 18 17 16 17 17 21 20
Wind_Direction
311 299 143 52 61 63 337 14 330 93 114 216 118 156 85 31 62 154 318 85 133 142 149 148 154 150 137 130 126 129 131 129 130 131 130 131 135 138 136 135 135 139 144 144 141 131 125 122 116
308 335 47 94 84 79 295 299 143 174 136 111 86 50 50 54 30 33 2 128 141 144 146 148 156 155 148 142 138 139 141 137 135 137 137 135 135 138 138 140 139 145 152 153 151 139 131 125 119
282 35 74 85 102 146 154 264 152 114 157 83 82 49 20 348 24 342 278 164 129 131 141 155 156 158 157 147 143 144 147 147 144 142 143 142 139 140 144 144 143 151 159 161 163 153 139 132 120
64 12 27 84 155 213 161 155 151 124 25 41 103 51 58 346 347 295 314 136 133 127 135 156 158 160 161 155 150 149 152 155 154 150 148 146 146 147 150 146 147 158 167 174 175 178 152 143 130
35 59 56 80 322 43 64 130 184 102 89 37 95 76 49 32 323 310 343 143 138 115 107 135 149 162 167 164 160 156 156 155 159 161 156 156 156 158 157 157 156 163 177 193 204 209 215 174 166
45 93 58 115 228 16 17 35 103 76 109 135 69 73 6 332 360 340 19 87 78 94 88 106 131 144 165 161 160 162 161 158 162 171 174 169 168 170 170 169 170 169 176 198 224 246 250 259 269
110 83 187 158 172 99 178 311 99 112 142 211 151 95 329 4 344 23 59 70 82 88 85 82 79 81 72 75 71 153 187 194 175 166 177 194 196 188 188 185 186 194 188 204 222 247 258 267 271
106 90 129 227 170 139 221 155 140 108 111 87 125 147 184 6 348 60 57 56 71 92 102 99 94 117 141 155 162 174 195 217 235 224 183 177 198 222 219 208 201 201 207 211 227 234 254 262 269
109 63 177 178 155 164 298 146 175 8 78 67 59 135 155 149 74 67 61 44 55 55 50 79 104 98 109 141 162 170 188 204 221 242 252 223 191 188 216 222 231 222 215 217 226 240 247 259 270
98 112 217 224 165 151 143 151 129 89 80 61 69 23 108 114 85 91 77 62 46 41 43 39 46 40 18 30 72 94 255 231 220 237 236 242 288 257 207 212 226 233 226 223 230 234 246 259 267
167 170 198 184 188 141 146 131 170 130 163 187 166 177 173 103 83 98 88 85 88 67 60 46 51 44 43 35 22 19 3 319 276 228 225 234 229 233 255 262 229 209 227 220 228 236 228 245 259
169 194 175 184 197 126 155 153 130 158 201 184 176 170 130 113 111 119 114 109 97 82 83 66 64 67 49 49 39 27 24 8 344 277 249 240 224 239 245 247 244 236 223 208 212 230 230 239 245
168 199 165 178 167 176 132 173 193 217 210 146 176 124 133 124 125 120 122 122 120 101 103 83 81 72 48 53 40 22 12 16 349 347 337 254 281 246 229 236 220 228 231 229 232 233 224 232 234
300 267 110 161 200 205 154 218 142 248 173 165 177 154 155 144 155 136 143 146 139 135 134 150 111 106 93 95 73 42 22 358 1 347 337 322 301 271 258 255 239 230 221 228 227 229 229 224 224
303 42 350 226 193 210 139 275 222 190 156 174 193 163 155 162 156 158 156 141 138 136 149 149 163 161 143 124 94 56 37 43 17 352 345 341 311 297 284 278 303 267 240 226 224 228 223 223 215
27 53 20 290 143 245 138 252 259 183 171 203 179 166 165 176 170 165 154 134 144 134 111 81 42 21 10 25 118 116 31 13 303 328 332 321 318 294 287 265 259 269 284 235 226 222 221 224 218
4 234 251 315 188 154 172 240 249 239 182 199 177 179 173 166 183 183 169 156 156 138 133 113 110 121 349 326 331 322 239 280 286 299 310 310 314 312 280 266 274 262 256 269 245 230 219 217 214
216 227 264 249 276 117 200 265 284 239 188 201 187 182 184 183 194 179 169 166 158 148 112 103 92 54 8 308 300 317 319 308 269 267 278 280 276 286 288 270 282 287 268 258 260 247 222 223 209
223 220 231 259 258 177 237 245 259 262 247 256 227 198 195 200 193 180 186 171 134 99 95 74 43 8 30 12 356 345 296 290 285 264 262 268 265 268 260 285 286 300 306 300 261 266 269 219 206
246 227 247 289 271 163 272 253 243 249 246 210 205 202 198 176 183 186 180 158 136 130 114 105 114 62 30 62 268 228 258 271 258 262 280 263 258 250 254 251 261 262 281 295 298 281 258 283 199
222 181 203 216 339 333 327 275 230 247 245 252 230 197 196 185 181 178 169 154 132 133 153 160 173 116 59 26 342 334 307 291 309 285 278 263 260 247 240 244 244 254 237 254 276 283 275 277 239
223 214 181 146 104 234 37 283 258 229 236 239 239 200 195 180 164 160 159 149 166 176 169 160 128 73 43 6 358 348 294 300 267 288 281 276 262 258 252 241 245 245 256 242 253 267 263 253 258
226 127 147 134 128 97 316 296 266 288 258 255 237 209 193 178 159 155 162 163 189 173 177 142 134 90 56 357 2 323 299 273 295 290 286 290 267 253 260 256 248 247 249 249 244 258 257 248 237
139 82 46 46 85 322 213 178 282 255 245 310 306 177 160 151 143 149 167 156 178 167 157 164 106 69 26 314 307 294 286 291 294 293 291 285 280 276 243 253 249 250 248 256 255 255 255 245 239
83 74 333 336 355 229 176 184 241 285 296 270 232 149 131 128 141 153 166 185 177 178 177 134 89 306 278 280 278 278 274 274 281 284 285 286 290 288 278 250 250 246 242 244 257 261 258 244 233
190 160 163 216 204 255 309 239 255 293 316 327 122 124 122 146 164 177 189 184 176 171 149 135 184 249 251 260 265 263 262 268 270 278 277 283 281 283 281 278 275 262 255 251 253 256 257 249 230
186 167 192 108 360 52 240 292 309 282 5 72 102 123 155 178 192 185 186 173 168 166 177 201 231 251 261 267 267 261 263 259 265 275 278 278 277 274 276 279 278 273 267 260 254 258 255 250 239
163 164 79 1 185 238 272 265 235 217 202 195 170 182 198 195 176 191 175 173 168 168 212 232 245 254 265 270 266 279 279 264 274 278 284 281 278 273 271 274 274 272 268 261 255 256 252 249 244
149 172 67 123 149 183 223 257 213 205 195 197 208 212 209 201 191 193 183 166 169 202 224 241 257 269 285 283 283 281 291 288 292 288 287 285 285 280 274 273 275 271 265 261 258 255 251 249 243
217 186 154 143 217 234 173 256 227 215 206 190 214 223 229 203 197 177 162 169 202 226 232 251 277 292 284 280 285 292 288 291 291 289 286 287 284 284 277 277 274 270 268 267 261 260 259 253 243